Year,Month,Day,Hour,Minute,Value (Times are PST for temperature in C)
2016,09,27,00,00,16.60
2016,09,27,00,01,16.60
2016,09,27,00,02,16.60
2016,09,27,00,03,16.60
2016,09,27,00,04,16.60
2016,09,27,00,05,16.60
2016,09,27,00,06,16.50
2016,09,27,00,07,16.40
2016,09,27,00,08,16.40
2016,09,27,00,09,16.40
2016,09,27,00,10,16.40
2016,09,27,00,11,16.40
2016,09,27,00,12,16.40
2016,09,27,00,13,16.40
2016,09,27,00,14,16.40
2016,09,27,00,15,16.40
2016,09,27,00,16,16.40
2016,09,27,00,17,16.40
2016,09,27,00,18,16.40
2016,09,27,00,19,16.40
2016,09,27,00,20,16.40
2016,09,27,00,21,16.40
2016,09,27,00,22,16.40
2016,09,27,00,23,16.40
2016,09,27,00,24,16.40
2016,09,27,00,25,16.40
2016,09,27,00,26,16.40
2016,09,27,00,27,16.40
2016,09,27,00,28,16.40
2016,09,27,00,29,16.40
2016,09,27,00,30,16.40
2016,09,27,00,31,16.40
2016,09,27,00,32,16.40
2016,09,27,00,33,16.40
2016,09,27,00,34,16.40
2016,09,27,00,35,16.40
2016,09,27,00,36,16.40
2016,09,27,00,37,16.40
2016,09,27,00,38,16.40
2016,09,27,00,39,16.40
2016,09,27,00,40,16.40
2016,09,27,00,41,16.40
2016,09,27,00,42,16.40
2016,09,27,00,43,16.40
2016,09,27,00,44,16.40
2016,09,27,00,45,16.40
2016,09,27,00,46,16.40
2016,09,27,00,47,16.40
2016,09,27,00,48,16.40
2016,09,27,00,49,16.40
2016,09,27,00,50,16.40
2016,09,27,00,51,16.40
2016,09,27,00,52,16.30
2016,09,27,00,53,16.30
2016,09,27,00,54,16.30
2016,09,27,00,55,16.30
2016,09,27,00,56,16.30
2016,09,27,00,57,16.20
2016,09,27,00,58,16.20
2016,09,27,00,59,16.20
2016,09,27,01,00,16.20
2016,09,27,01,01,16.20
2016,09,27,01,02,16.10
2016,09,27,01,03,16.10
2016,09,27,01,04,16.10
2016,09,27,01,05,16.10
2016,09,27,01,06,16.10
2016,09,27,01,07,16.10
2016,09,27,01,08,16.10
2016,09,27,01,09,16.10
2016,09,27,01,10,16.10
2016,09,27,01,11,16.00
2016,09,27,01,12,15.90
2016,09,27,01,13,15.90
2016,09,27,01,14,15.90
2016,09,27,01,15,15.90
2016,09,27,01,16,15.90
2016,09,27,01,17,15.90
2016,09,27,01,18,15.80
2016,09,27,01,19,15.80
2016,09,27,01,20,15.80
2016,09,27,01,21,15.80
2016,09,27,01,22,15.80
2016,09,27,01,23,15.80
2016,09,27,01,24,15.80
2016,09,27,01,25,15.80
2016,09,27,01,26,15.80
2016,09,27,01,27,15.80
2016,09,27,01,28,15.80
2016,09,27,01,29,15.80
2016,09,27,01,30,15.80
2016,09,27,01,31,15.80
2016,09,27,01,32,15.80
2016,09,27,01,33,15.80
2016,09,27,01,34,15.80
2016,09,27,01,35,15.80
2016,09,27,01,36,15.80
2016,09,27,01,37,15.80
2016,09,27,01,38,15.80
2016,09,27,01,39,15.80
2016,09,27,01,40,15.80
2016,09,27,01,41,15.80
2016,09,27,01,42,15.90
2016,09,27,01,43,15.90
2016,09,27,01,44,15.90
2016,09,27,01,45,15.90
2016,09,27,01,46,15.90
2016,09,27,01,47,15.90
2016,09,27,01,48,15.90
2016,09,27,01,49,15.90
2016,09,27,01,50,15.90
2016,09,27,01,51,15.90
2016,09,27,01,52,15.90
2016,09,27,01,53,15.90
2016,09,27,01,54,15.90
2016,09,27,01,55,15.90
2016,09,27,01,56,15.90
2016,09,27,01,57,16.00
2016,09,27,01,58,16.00
2016,09,27,01,59,16.00
2016,09,27,02,00,15.90
2016,09,27,02,01,15.90
2016,09,27,02,02,15.90
2016,09,27,02,03,15.90
2016,09,27,02,04,15.90
2016,09,27,02,05,15.90
2016,09,27,02,06,15.90
2016,09,27,02,07,15.90
2016,09,27,02,08,15.80
2016,09,27,02,09,15.80
2016,09,27,02,10,15.80
2016,09,27,02,11,15.80
2016,09,27,02,12,15.70
2016,09,27,02,13,15.70
2016,09,27,02,14,15.70
2016,09,27,02,15,15.70
2016,09,27,02,16,15.60
2016,09,27,02,17,15.60
2016,09,27,02,18,15.60
2016,09,27,02,19,15.60
2016,09,27,02,20,15.60
2016,09,27,02,21,15.50
2016,09,27,02,22,15.50
2016,09,27,02,23,15.50
2016,09,27,02,24,15.40
2016,09,27,02,25,15.40
2016,09,27,02,26,15.40
2016,09,27,02,27,15.30
2016,09,27,02,28,15.30
2016,09,27,02,29,15.30
2016,09,27,02,30,15.30
2016,09,27,02,31,15.30
2016,09,27,02,32,15.20
2016,09,27,02,33,15.20
2016,09,27,02,34,15.20
2016,09,27,02,35,15.20
2016,09,27,02,36,15.10
2016,09,27,02,37,15.10
2016,09,27,02,38,15.10
2016,09,27,02,39,15.00
2016,09,27,02,40,15.00
2016,09,27,02,41,15.00
2016,09,27,02,42,14.90
2016,09,27,02,43,14.90
2016,09,27,02,44,14.90
2016,09,27,02,45,14.80
2016,09,27,02,46,14.80
2016,09,27,02,47,14.80
2016,09,27,02,48,14.80
2016,09,27,02,49,14.80
2016,09,27,02,50,14.70
2016,09,27,02,51,14.70
2016,09,27,02,52,14.60
2016,09,27,02,53,14.60
2016,09,27,02,54,14.60
2016,09,27,02,55,14.60
2016,09,27,02,56,14.50
2016,09,27,02,57,14.50
2016,09,27,02,58,14.50
2016,09,27,02,59,14.50
2016,09,27,03,00,14.50
2016,09,27,03,01,14.40
2016,09,27,03,02,14.40
2016,09,27,03,03,14.40
2016,09,27,03,04,14.40
2016,09,27,03,05,14.30
2016,09,27,03,06,14.30
2016,09,27,03,07,14.30
2016,09,27,03,08,14.30
2016,09,27,03,09,14.30
2016,09,27,03,10,14.20
2016,09,27,03,11,14.20
2016,09,27,03,12,14.20
2016,09,27,03,13,14.20
2016,09,27,03,14,14.20
2016,09,27,03,15,14.10
2016,09,27,03,16,14.10
2016,09,27,03,17,14.00
2016,09,27,03,18,14.00
2016,09,27,03,19,14.00
2016,09,27,03,20,13.90
2016,09,27,03,21,13.90
2016,09,27,03,22,13.90
2016,09,27,03,23,13.90
2016,09,27,03,24,13.80
2016,09,27,03,25,13.80
2016,09,27,03,26,13.80
2016,09,27,03,27,13.70
2016,09,27,03,28,13.70
2016,09,27,03,29,13.70
2016,09,27,03,30,13.70
2016,09,27,03,31,13.70
2016,09,27,03,32,13.60
2016,09,27,03,33,13.60
2016,09,27,03,34,13.60
2016,09,27,03,35,13.60
2016,09,27,03,36,13.50
2016,09,27,03,37,13.50
2016,09,27,03,38,13.60
2016,09,27,03,39,13.60
2016,09,27,03,40,13.60
2016,09,27,03,41,13.50
2016,09,27,03,42,13.50
2016,09,27,03,43,13.50
2016,09,27,03,44,13.50
2016,09,27,03,45,13.50
2016,09,27,03,46,13.50
2016,09,27,03,47,13.40
2016,09,27,03,48,13.40
2016,09,27,03,49,13.40
2016,09,27,03,50,13.30
2016,09,27,03,51,13.30
2016,09,27,03,52,13.30
2016,09,27,03,53,13.30
2016,09,27,03,54,13.30
2016,09,27,03,55,13.30
2016,09,27,03,56,13.30
2016,09,27,03,57,13.30
2016,09,27,03,58,13.30
2016,09,27,03,59,13.30
2016,09,27,04,00,13.30
2016,09,27,04,01,13.30
2016,09,27,04,02,13.20
2016,09,27,04,03,13.20
2016,09,27,04,04,13.20
2016,09,27,04,05,13.20
2016,09,27,04,06,13.20
2016,09,27,04,07,13.20
2016,09,27,04,08,13.10
2016,09,27,04,09,13.10
2016,09,27,04,10,13.10
2016,09,27,04,11,13.10
2016,09,27,04,12,13.10
2016,09,27,04,13,13.10
2016,09,27,04,14,13.10
2016,09,27,04,15,13.10
2016,09,27,04,16,13.10
2016,09,27,04,17,13.10
2016,09,27,04,18,13.20
2016,09,27,04,19,13.20
2016,09,27,04,20,13.10
2016,09,27,04,21,13.10
2016,09,27,04,22,13.10
2016,09,27,04,23,13.10
2016,09,27,04,24,13.10
2016,09,27,04,25,13.10
2016,09,27,04,26,13.10
2016,09,27,04,27,13.10
2016,09,27,04,28,13.10
2016,09,27,04,29,13.10
2016,09,27,04,30,13.10
2016,09,27,04,31,13.10
2016,09,27,04,32,13.10
2016,09,27,04,33,13.10
2016,09,27,04,34,13.10
2016,09,27,04,35,13.00
2016,09,27,04,36,13.00
2016,09,27,04,37,13.00
2016,09,27,04,38,13.00
2016,09,27,04,39,12.90
2016,09,27,04,40,12.90
2016,09,27,04,41,12.90
2016,09,27,04,42,12.80
2016,09,27,04,43,12.80
2016,09,27,04,44,12.80
2016,09,27,04,45,12.80
2016,09,27,04,46,12.70
2016,09,27,04,47,12.70
2016,09,27,04,48,12.60
2016,09,27,04,49,12.60
2016,09,27,04,50,12.60
2016,09,27,04,51,12.60
2016,09,27,04,52,12.60
2016,09,27,04,53,12.50
2016,09,27,04,54,12.50
2016,09,27,04,55,12.50
2016,09,27,04,56,12.50
2016,09,27,04,57,12.40
2016,09,27,04,58,12.40
2016,09,27,04,59,12.40
2016,09,27,05,00,12.40
2016,09,27,05,01,12.40
2016,09,27,05,02,12.30
2016,09,27,05,03,12.30
2016,09,27,05,04,12.30
2016,09,27,05,05,12.30
2016,09,27,05,06,12.30
2016,09,27,05,07,12.30
2016,09,27,05,08,12.20
2016,09,27,05,09,12.20
2016,09,27,05,10,12.20
2016,09,27,05,11,12.20
2016,09,27,05,12,12.20
2016,09,27,05,13,12.20
2016,09,27,05,14,12.20
2016,09,27,05,15,12.20
2016,09,27,05,16,12.10
2016,09,27,05,17,12.10
2016,09,27,05,18,12.10
2016,09,27,05,19,12.10
2016,09,27,05,20,12.10
2016,09,27,05,21,12.10
2016,09,27,05,22,12.10
2016,09,27,05,23,12.10
2016,09,27,05,24,12.10
2016,09,27,05,25,12.10
2016,09,27,05,26,12.10
2016,09,27,05,27,12.20
2016,09,27,05,28,12.20
2016,09,27,05,29,12.30
2016,09,27,05,30,12.30
2016,09,27,05,31,12.30
2016,09,27,05,32,12.30
2016,09,27,05,33,12.30
2016,09,27,05,34,12.30
2016,09,27,05,35,12.30
2016,09,27,05,36,12.30
2016,09,27,05,37,12.30
2016,09,27,05,38,12.30
2016,09,27,05,39,12.30
2016,09,27,05,40,12.30
2016,09,27,05,41,12.30
2016,09,27,05,42,12.30
2016,09,27,05,43,12.30
2016,09,27,05,44,12.30
2016,09,27,05,45,12.20
2016,09,27,05,46,12.20
2016,09,27,05,47,12.20
2016,09,27,05,48,12.20
2016,09,27,05,49,12.10
2016,09,27,05,50,12.10
2016,09,27,05,51,12.10
2016,09,27,05,52,12.10
2016,09,27,05,53,12.20
2016,09,27,05,54,12.20
2016,09,27,05,55,12.20
2016,09,27,05,56,12.30
2016,09,27,05,57,12.30
2016,09,27,05,58,12.30
2016,09,27,05,59,12.30
2016,09,27,06,00,12.30
2016,09,27,06,01,12.30
2016,09,27,06,02,12.30
2016,09,27,06,03,12.30
2016,09,27,06,04,12.30
2016,09,27,06,05,12.30
2016,09,27,06,06,12.30
2016,09,27,06,07,12.30
2016,09,27,06,08,12.30
2016,09,27,06,09,12.30
2016,09,27,06,10,12.30
2016,09,27,06,11,12.30
2016,09,27,06,12,12.30
2016,09,27,06,13,12.20
2016,09,27,06,14,12.20
2016,09,27,06,15,12.20
2016,09,27,06,16,12.20
2016,09,27,06,17,12.20
2016,09,27,06,18,12.20
2016,09,27,06,19,12.20
2016,09,27,06,20,12.20
2016,09,27,06,21,12.20
2016,09,27,06,22,12.20
2016,09,27,06,23,12.20
2016,09,27,06,24,12.20
2016,09,27,06,25,12.10
2016,09,27,06,26,12.10
2016,09,27,06,27,12.10
2016,09,27,06,28,12.20
2016,09,27,06,29,12.20
2016,09,27,06,30,12.10
2016,09,27,06,31,12.10
2016,09,27,06,32,12.10
2016,09,27,06,33,12.10
2016,09,27,06,34,12.10
2016,09,27,06,35,12.10
2016,09,27,06,36,12.10
2016,09,27,06,37,12.10
2016,09,27,06,38,12.10
2016,09,27,06,39,12.10
2016,09,27,06,40,12.00
2016,09,27,06,41,12.00
2016,09,27,06,42,12.00
2016,09,27,06,43,12.00
2016,09,27,06,44,12.00
2016,09,27,06,45,12.00
2016,09,27,06,46,12.00
2016,09,27,06,47,12.00
2016,09,27,06,48,12.10
2016,09,27,06,49,12.10
2016,09,27,06,50,12.10
2016,09,27,06,51,12.10
2016,09,27,06,52,12.10
2016,09,27,06,53,12.10
2016,09,27,06,54,12.10
2016,09,27,06,55,12.10
2016,09,27,06,56,12.10
2016,09,27,06,57,12.10
2016,09,27,06,58,12.10
2016,09,27,06,59,12.10
2016,09,27,07,00,12.10
2016,09,27,07,01,12.00
2016,09,27,07,02,12.00
2016,09,27,07,03,12.00
2016,09,27,07,04,12.00
2016,09,27,07,05,11.90
2016,09,27,07,06,11.90
2016,09,27,07,07,11.90
2016,09,27,07,08,11.80
2016,09,27,07,09,11.80
2016,09,27,07,10,11.90
2016,09,27,07,11,11.90
2016,09,27,07,12,11.90
2016,09,27,07,13,11.90
2016,09,27,07,14,11.90
2016,09,27,07,15,11.90
2016,09,27,07,16,12.00
2016,09,27,07,17,12.00
2016,09,27,07,18,12.00
2016,09,27,07,19,12.10
2016,09,27,07,20,12.10
2016,09,27,07,21,12.10
2016,09,27,07,22,12.20
2016,09,27,07,23,12.20
2016,09,27,07,24,12.20
2016,09,27,07,25,12.20
2016,09,27,07,26,12.30
2016,09,27,07,27,12.30
2016,09,27,07,28,12.30
2016,09,27,07,29,12.30
2016,09,27,07,30,12.30
2016,09,27,07,31,12.40
2016,09,27,07,32,12.40
2016,09,27,07,33,12.40
2016,09,27,07,34,12.40
2016,09,27,07,35,12.50
2016,09,27,07,36,12.50
2016,09,27,07,37,12.50
2016,09,27,07,38,12.50
2016,09,27,07,39,12.50
2016,09,27,07,40,12.50
2016,09,27,07,41,12.60
2016,09,27,07,42,12.60
2016,09,27,07,43,12.60
2016,09,27,07,44,12.60
2016,09,27,07,45,12.60
2016,09,27,07,46,12.60
2016,09,27,07,47,12.60
2016,09,27,07,48,12.50
2016,09,27,07,49,12.50
2016,09,27,07,50,12.50
2016,09,27,07,51,12.50
2016,09,27,07,52,12.50
2016,09,27,07,53,12.50
2016,09,27,07,54,12.50
2016,09,27,07,55,12.50
2016,09,27,07,56,12.50
2016,09,27,07,57,12.50
2016,09,27,07,58,12.50
2016,09,27,07,59,12.50
2016,09,27,08,00,12.50
2016,09,27,08,01,12.50
2016,09,27,08,02,12.50
2016,09,27,08,03,12.50
2016,09,27,08,04,12.50
2016,09,27,08,05,12.50
2016,09,27,08,06,12.50
2016,09,27,08,07,12.50
2016,09,27,08,08,12.40
2016,09,27,08,09,12.40
2016,09,27,08,10,12.40
2016,09,27,08,11,12.40
2016,09,27,08,12,12.40
2016,09,27,08,13,12.40
2016,09,27,08,14,12.40
2016,09,27,08,15,12.40
2016,09,27,08,16,12.40
2016,09,27,08,17,12.40
2016,09,27,08,18,12.40
2016,09,27,08,19,12.40
2016,09,27,08,20,12.40
2016,09,27,08,21,12.40
2016,09,27,08,22,12.40
2016,09,27,08,23,12.40
2016,09,27,08,24,12.50
2016,09,27,08,25,12.50
2016,09,27,08,26,12.50
2016,09,27,08,27,12.50
2016,09,27,08,28,12.50
2016,09,27,08,29,12.50
2016,09,27,08,30,12.50
2016,09,27,08,31,12.50
2016,09,27,08,32,12.60
2016,09,27,08,33,12.60
2016,09,27,08,34,12.60
2016,09,27,08,35,12.70
2016,09,27,08,36,12.70
2016,09,27,08,37,12.80
2016,09,27,08,38,12.80
2016,09,27,08,39,12.80
2016,09,27,08,40,12.80
2016,09,27,08,41,12.80
2016,09,27,08,42,12.80
2016,09,27,08,43,12.80
2016,09,27,08,44,12.80
2016,09,27,08,45,12.80
2016,09,27,08,46,12.80
2016,09,27,08,47,12.90
2016,09,27,08,48,12.90
2016,09,27,08,49,13.00
2016,09,27,08,50,13.00
2016,09,27,08,51,13.10
2016,09,27,08,52,13.10
2016,09,27,08,53,13.20
2016,09,27,08,54,13.20
2016,09,27,08,55,13.30
2016,09,27,08,56,13.30
2016,09,27,08,57,13.30
2016,09,27,08,58,13.30
2016,09,27,08,59,13.30
2016,09,27,09,00,13.40
2016,09,27,09,01,13.40
2016,09,27,09,02,13.40
2016,09,27,09,03,13.30
2016,09,27,09,04,13.30
2016,09,27,09,05,13.30
2016,09,27,09,06,13.30
2016,09,27,09,07,13.40
2016,09,27,09,08,13.40
2016,09,27,09,09,13.40
2016,09,27,09,10,13.50
2016,09,27,09,11,13.50
2016,09,27,09,12,13.60
2016,09,27,09,13,13.60
2016,09,27,09,14,13.50
2016,09,27,09,15,13.60
2016,09,27,09,16,13.60
2016,09,27,09,17,13.60
2016,09,27,09,18,13.60
2016,09,27,09,19,13.70
2016,09,27,09,20,13.70
2016,09,27,09,21,13.70
2016,09,27,09,22,13.70
2016,09,27,09,23,13.70
2016,09,27,09,24,13.80
2016,09,27,09,25,13.80
2016,09,27,09,26,13.90
2016,09,27,09,27,13.90
2016,09,27,09,28,13.90
2016,09,27,09,29,13.90
2016,09,27,09,30,14.00
2016,09,27,09,31,14.00
2016,09,27,09,32,14.10
2016,09,27,09,33,14.30
2016,09,27,09,34,14.30
2016,09,27,09,35,14.40
2016,09,27,09,36,14.40
2016,09,27,09,37,14.50
2016,09,27,09,38,14.50
2016,09,27,09,39,14.60
2016,09,27,09,40,14.60
2016,09,27,09,41,14.70
2016,09,27,09,42,14.80
2016,09,27,09,43,14.80
2016,09,27,09,44,14.90
2016,09,27,09,45,14.90
2016,09,27,09,46,15.00
2016,09,27,09,47,15.00
2016,09,27,09,48,15.00
2016,09,27,09,49,15.00
2016,09,27,09,50,15.10
2016,09,27,09,51,15.10
2016,09,27,09,52,15.00
2016,09,27,09,53,15.00
2016,09,27,09,54,14.90
2016,09,27,09,55,14.90
2016,09,27,09,56,14.80
2016,09,27,09,57,14.80
2016,09,27,09,58,14.80
2016,09,27,09,59,14.90
2016,09,27,10,00,15.00
2016,09,27,10,01,15.00
2016,09,27,10,02,15.10
2016,09,27,10,03,15.20
2016,09,27,10,04,15.30
2016,09,27,10,05,15.40
2016,09,27,10,06,15.40
2016,09,27,10,07,15.30
2016,09,27,10,08,15.40
2016,09,27,10,09,15.40
2016,09,27,10,10,15.50
2016,09,27,10,11,15.50
2016,09,27,10,12,15.50
2016,09,27,10,13,15.40
2016,09,27,10,14,15.20
2016,09,27,10,15,15.20
2016,09,27,10,16,15.30
2016,09,27,10,17,15.30
2016,09,27,10,18,15.30
2016,09,27,10,19,15.30
2016,09,27,10,20,15.30
2016,09,27,10,21,15.30
2016,09,27,10,22,15.20
2016,09,27,10,23,15.30
2016,09,27,10,24,15.40
2016,09,27,10,25,15.50
2016,09,27,10,26,15.60
2016,09,27,10,27,15.70
2016,09,27,10,28,15.80
2016,09,27,10,29,16.00
2016,09,27,10,30,16.10
2016,09,27,10,31,16.10
2016,09,27,10,32,16.00
2016,09,27,10,33,15.90
2016,09,27,10,34,15.80
2016,09,27,10,35,15.80
2016,09,27,10,36,15.90
2016,09,27,10,37,15.90
2016,09,27,10,38,15.90
2016,09,27,10,39,15.90
2016,09,27,10,40,15.80
2016,09,27,10,41,15.70
2016,09,27,10,42,15.60
2016,09,27,10,43,15.50
2016,09,27,10,44,15.40
2016,09,27,10,45,15.40
2016,09,27,10,46,15.30
2016,09,27,10,47,15.30
2016,09,27,10,48,15.40
2016,09,27,10,49,15.50
2016,09,27,10,50,15.60
2016,09,27,10,51,15.60
2016,09,27,10,52,15.70
2016,09,27,10,53,15.80
2016,09,27,10,54,15.70
2016,09,27,10,55,15.60
2016,09,27,10,56,15.50
2016,09,27,10,57,15.50
2016,09,27,10,58,15.40
2016,09,27,10,59,15.30
2016,09,27,11,00,15.30
2016,09,27,11,01,15.10
2016,09,27,11,02,15.10
2016,09,27,11,03,15.10
2016,09,27,11,04,15.20
2016,09,27,11,05,15.30
2016,09,27,11,06,15.30
2016,09,27,11,07,15.40
2016,09,27,11,08,15.40
2016,09,27,11,09,15.50
2016,09,27,11,10,15.50
2016,09,27,11,11,15.50
2016,09,27,11,12,15.60
2016,09,27,11,13,15.80
2016,09,27,11,14,15.90
2016,09,27,11,15,16.00
2016,09,27,11,16,16.10
2016,09,27,11,17,16.10
2016,09,27,11,18,16.10
2016,09,27,11,19,16.10
2016,09,27,11,20,16.10
2016,09,27,11,21,16.20
2016,09,27,11,22,16.20
2016,09,27,11,23,16.30
2016,09,27,11,24,16.30
2016,09,27,11,25,16.20
2016,09,27,11,26,16.30
2016,09,27,11,27,16.30
2016,09,27,11,28,16.40
2016,09,27,11,29,16.50
2016,09,27,11,30,16.40
2016,09,27,11,31,16.40
2016,09,27,11,32,16.20
2016,09,27,11,33,16.10
2016,09,27,11,34,16.10
2016,09,27,11,35,15.90
2016,09,27,11,36,15.90
2016,09,27,11,37,15.80
2016,09,27,11,38,15.60
2016,09,27,11,39,15.40
2016,09,27,11,40,15.30
2016,09,27,11,41,15.20
2016,09,27,11,42,15.30
2016,09,27,11,43,15.50
2016,09,27,11,44,15.50
2016,09,27,11,45,15.50
2016,09,27,11,46,15.50
2016,09,27,11,47,15.50
2016,09,27,11,48,15.50
2016,09,27,11,49,15.40
2016,09,27,11,50,15.30
2016,09,27,11,51,15.50
2016,09,27,11,52,15.50
2016,09,27,11,53,15.50
2016,09,27,11,54,15.50
2016,09,27,11,55,15.30
2016,09,27,11,56,15.30
2016,09,27,11,57,15.30
2016,09,27,11,58,15.30
2016,09,27,11,59,15.20
2016,09,27,12,00,15.20
2016,09,27,12,01,15.10
2016,09,27,12,02,15.10
2016,09,27,12,03,15.20
2016,09,27,12,04,15.30
2016,09,27,12,05,15.20
2016,09,27,12,06,15.20
2016,09,27,12,07,15.20
2016,09,27,12,08,15.20
2016,09,27,12,09,15.20
2016,09,27,12,10,15.20
2016,09,27,12,11,15.30
2016,09,27,12,12,15.20
2016,09,27,12,13,15.20
2016,09,27,12,14,15.20
2016,09,27,12,15,15.30
2016,09,27,12,16,15.40
2016,09,27,12,17,15.50
2016,09,27,12,18,15.50
2016,09,27,12,19,15.60
2016,09,27,12,20,15.60
2016,09,27,12,21,15.50
2016,09,27,12,22,15.60
2016,09,27,12,23,15.50
2016,09,27,12,24,15.60
2016,09,27,12,25,15.80
2016,09,27,12,26,15.80
2016,09,27,12,27,15.70
2016,09,27,12,28,15.60
2016,09,27,12,29,15.50
2016,09,27,12,30,15.50
2016,09,27,12,31,15.50
2016,09,27,12,32,15.50
2016,09,27,12,33,15.40
2016,09,27,12,34,15.40
2016,09,27,12,35,15.30
2016,09,27,12,36,15.40
2016,09,27,12,37,15.50
2016,09,27,12,38,15.60
2016,09,27,12,39,15.70
2016,09,27,12,40,15.70
2016,09,27,12,41,15.80
2016,09,27,12,42,15.90
2016,09,27,12,43,16.00
2016,09,27,12,44,16.10
2016,09,27,12,45,16.10
2016,09,27,12,46,16.10
2016,09,27,12,47,16.10
2016,09,27,12,48,16.00
2016,09,27,12,49,16.00
2016,09,27,12,50,16.00
2016,09,27,12,51,16.00
2016,09,27,12,52,16.10
2016,09,27,12,53,16.10
2016,09,27,12,54,16.20
2016,09,27,12,55,16.20
2016,09,27,12,56,16.20
2016,09,27,12,57,16.30
2016,09,27,12,58,16.40
2016,09,27,12,59,16.40
2016,09,27,13,00,16.40
2016,09,27,13,01,16.40
2016,09,27,13,02,16.30
2016,09,27,13,03,16.20
2016,09,27,13,04,16.20
2016,09,27,13,05,16.10
2016,09,27,13,06,16.10
2016,09,27,13,07,16.10
2016,09,27,13,08,16.10
2016,09,27,13,09,16.10
2016,09,27,13,10,16.10
2016,09,27,13,11,16.10
2016,09,27,13,12,16.20
2016,09,27,13,13,16.40
2016,09,27,13,14,16.40
2016,09,27,13,15,16.50
2016,09,27,13,16,16.60
2016,09,27,13,17,16.60
2016,09,27,13,18,16.50
2016,09,27,13,19,16.40
2016,09,27,13,20,16.30
2016,09,27,13,21,16.30
2016,09,27,13,22,16.30
2016,09,27,13,23,16.30
2016,09,27,13,24,16.40
2016,09,27,13,25,16.40
2016,09,27,13,26,16.40
2016,09,27,13,27,16.50
2016,09,27,13,28,16.60
2016,09,27,13,29,16.60
2016,09,27,13,30,16.70
2016,09,27,13,31,16.70
2016,09,27,13,32,16.80
2016,09,27,13,33,16.90
2016,09,27,13,34,17.00
2016,09,27,13,35,17.10
2016,09,27,13,36,17.00
2016,09,27,13,37,17.00
2016,09,27,13,38,16.90
2016,09,27,13,39,16.80
2016,09,27,13,40,16.70
2016,09,27,13,41,16.70
2016,09,27,13,42,16.80
2016,09,27,13,43,16.80
2016,09,27,13,44,16.80
2016,09,27,13,45,16.70
2016,09,27,13,46,16.70
2016,09,27,13,47,16.70
2016,09,27,13,48,16.70
2016,09,27,13,49,16.70
2016,09,27,13,50,16.80
2016,09,27,13,51,17.00
2016,09,27,13,52,17.10
2016,09,27,13,53,17.20
2016,09,27,13,54,17.30
2016,09,27,13,55,17.30
2016,09,27,13,56,17.40
2016,09,27,13,57,17.50
2016,09,27,13,58,17.50
2016,09,27,13,59,17.40
2016,09,27,14,00,17.40
2016,09,27,14,01,17.50
2016,09,27,14,02,17.60
2016,09,27,14,03,17.70
2016,09,27,14,04,17.70
2016,09,27,14,05,17.70
2016,09,27,14,06,17.60
2016,09,27,14,07,17.60
2016,09,27,14,08,17.50
2016,09,27,14,09,17.50
2016,09,27,14,10,17.50
2016,09,27,14,11,17.50
2016,09,27,14,12,17.60
2016,09,27,14,13,17.60
2016,09,27,14,14,17.70
2016,09,27,14,15,17.80
2016,09,27,14,16,17.90
2016,09,27,14,17,17.90
2016,09,27,14,18,17.80
2016,09,27,14,19,17.60
2016,09,27,14,20,17.50
2016,09,27,14,21,17.40
2016,09,27,14,22,17.30
2016,09,27,14,23,17.30
2016,09,27,14,24,17.40
2016,09,27,14,25,17.40
2016,09,27,14,26,17.40
2016,09,27,14,27,17.30
2016,09,27,14,28,17.30
2016,09,27,14,29,17.20
2016,09,27,14,30,17.10
2016,09,27,14,31,17.00
2016,09,27,14,32,17.00
2016,09,27,14,33,16.90
2016,09,27,14,34,16.80
2016,09,27,14,35,16.80
2016,09,27,14,36,16.80
2016,09,27,14,37,16.90
2016,09,27,14,38,16.90
2016,09,27,14,39,17.00
2016,09,27,14,40,17.00
2016,09,27,14,41,17.00
2016,09,27,14,42,17.10
2016,09,27,14,43,17.10
2016,09,27,14,44,17.00
2016,09,27,14,45,16.90
2016,09,27,14,46,16.90
2016,09,27,14,47,16.80
2016,09,27,14,48,16.70
2016,09,27,14,49,16.70
2016,09,27,14,50,16.70
2016,09,27,14,51,16.70
2016,09,27,14,52,16.80
2016,09,27,14,53,16.80
2016,09,27,14,54,16.80
2016,09,27,14,55,16.80
2016,09,27,14,56,16.80
2016,09,27,14,57,16.90
2016,09,27,14,58,16.90
2016,09,27,14,59,17.00
2016,09,27,15,00,17.00
2016,09,27,15,01,17.00
2016,09,27,15,02,17.10
2016,09,27,15,03,17.20
2016,09,27,15,04,17.30
2016,09,27,15,05,17.30
2016,09,27,15,06,17.30
2016,09,27,15,07,17.20
2016,09,27,15,08,17.20
2016,09,27,15,09,17.10
2016,09,27,15,10,17.10
2016,09,27,15,11,17.00
2016,09,27,15,12,16.90
2016,09,27,15,13,16.90
2016,09,27,15,14,17.00
2016,09,27,15,15,17.00
2016,09,27,15,16,17.10
2016,09,27,15,17,17.20
2016,09,27,15,18,17.30
2016,09,27,15,19,17.50
2016,09,27,15,20,17.60
2016,09,27,15,21,17.70
2016,09,27,15,22,17.80
2016,09,27,15,23,17.70
2016,09,27,15,24,17.60
2016,09,27,15,25,17.50
2016,09,27,15,26,17.50
2016,09,27,15,27,17.50
2016,09,27,15,28,17.50
2016,09,27,15,29,17.40
2016,09,27,15,30,17.30
2016,09,27,15,31,17.20
2016,09,27,15,32,17.20
2016,09,27,15,33,17.10
2016,09,27,15,34,17.10
2016,09,27,15,35,17.10
2016,09,27,15,36,17.00
2016,09,27,15,37,17.00
2016,09,27,15,38,16.90
2016,09,27,15,39,16.90
2016,09,27,15,40,16.90
2016,09,27,15,41,16.90
2016,09,27,15,42,17.00
2016,09,27,15,43,17.00
2016,09,27,15,44,17.10
2016,09,27,15,45,17.10
2016,09,27,15,46,17.10
2016,09,27,15,47,17.20
2016,09,27,15,48,17.20
2016,09,27,15,49,17.20
2016,09,27,15,50,17.20
2016,09,27,15,51,17.30
2016,09,27,15,52,17.20
2016,09,27,15,53,17.10
2016,09,27,15,54,17.00
2016,09,27,15,55,17.00
2016,09,27,15,56,16.90
2016,09,27,15,57,17.00
2016,09,27,15,58,17.00
2016,09,27,15,59,17.00
2016,09,27,16,00,17.00
2016,09,27,16,01,16.90
2016,09,27,16,02,16.90
2016,09,27,16,03,16.80
2016,09,27,16,04,16.70
2016,09,27,16,05,16.70
2016,09,27,16,06,16.70
2016,09,27,16,07,16.80
2016,09,27,16,08,16.80
2016,09,27,16,09,16.70
2016,09,27,16,10,16.70
2016,09,27,16,11,16.70
2016,09,27,16,12,16.70
2016,09,27,16,13,16.70
2016,09,27,16,14,16.70
2016,09,27,16,15,16.70
2016,09,27,16,16,16.70
2016,09,27,16,17,16.70
2016,09,27,16,18,16.70
2016,09,27,16,19,16.70
2016,09,27,16,20,16.70
2016,09,27,16,21,16.60
2016,09,27,16,22,16.50
2016,09,27,16,23,16.40
2016,09,27,16,24,16.20
2016,09,27,16,25,16.10
2016,09,27,16,26,16.10
2016,09,27,16,27,16.10
2016,09,27,16,28,16.10
2016,09,27,16,29,16.10
2016,09,27,16,30,16.00
2016,09,27,16,31,15.90
2016,09,27,16,32,15.90
2016,09,27,16,33,15.90
2016,09,27,16,34,15.90
2016,09,27,16,35,16.10
2016,09,27,16,36,16.10
2016,09,27,16,37,16.20
2016,09,27,16,38,16.20
2016,09,27,16,39,16.30
2016,09,27,16,40,16.30
2016,09,27,16,41,16.20
2016,09,27,16,42,16.20
2016,09,27,16,43,16.20
2016,09,27,16,44,16.20
2016,09,27,16,45,16.20
2016,09,27,16,46,16.20
2016,09,27,16,47,16.20
2016,09,27,16,48,16.30
2016,09,27,16,49,16.40
2016,09,27,16,50,16.40
2016,09,27,16,51,16.60
2016,09,27,16,52,16.70
2016,09,27,16,53,16.70
2016,09,27,16,54,16.70
2016,09,27,16,55,16.70
2016,09,27,16,56,16.70
2016,09,27,16,57,16.50
2016,09,27,16,58,16.40
2016,09,27,16,59,16.40
2016,09,27,17,00,16.40
2016,09,27,17,01,16.40
2016,09,27,17,02,16.40
2016,09,27,17,03,16.40
2016,09,27,17,04,16.50
2016,09,27,17,05,16.60
2016,09,27,17,06,16.70
2016,09,27,17,07,16.70
2016,09,27,17,08,16.70
2016,09,27,17,09,16.60
2016,09,27,17,10,16.40
2016,09,27,17,11,16.30
2016,09,27,17,12,16.10
2016,09,27,17,13,16.00
2016,09,27,17,14,15.90
2016,09,27,17,15,15.90
2016,09,27,17,16,15.90
2016,09,27,17,17,15.80
2016,09,27,17,18,15.80
2016,09,27,17,19,15.80